TimeMST,TemperatureF,Dew PointF,Humidity,Sea Level PressureIn,VisibilityMPH,Wind Direction,Wind SpeedMPH,Gust SpeedMPH,PrecipitationIn,Events,Conditions,WindDirDegrees,DateUTC
12:53 AM,33.1,23.0,66,29.92,10.0,East,8.1,-,N/A,,Clear,80,2013-03-07 07:53:00
1:53 AM,30.9,23.0,72,29.94,10.0,East,4.6,-,N/A,,Clear,80,2013-03-07 08:53:00
2:53 AM,32.0,23.0,69,29.92,10.0,ENE,8.1,-,N/A,,Clear,70,2013-03-07 09:53:00
3:53 AM,30.0,21.9,72,29.92,10.0,ENE,6.9,-,N/A,,Clear,70,2013-03-07 10:53:00
4:53 AM,27.0,21.0,78,29.96,10.0,East,4.6,-,N/A,,Clear,90,2013-03-07 11:53:00
5:53 AM,28.0,21.0,75,29.97,10.0,ENE,4.6,-,N/A,,Clear,70,2013-03-07 12:53:00
6:53 AM,28.0,21.0,75,30.02,10.0,East,6.9,-,N/A,,Clear,80,2013-03-07 13:53:00
7:53 AM,35.1,24.1,64,30.03,10.0,Calm,Calm,-,N/A,,Clear,0,2013-03-07 14:53:00
8:53 AM,44.1,24.1,45,30.01,10.0,Calm,Calm,-,N/A,,Clear,0,2013-03-07 15:53:00
9:53 AM,52.0,21.0,30,29.99,10.0,NW,4.6,-,N/A,,Clear,320,2013-03-07 16:53:00
11:53 AM,59.0,12.9,16,29.94,10.0,South,10.4,16.1,N/A,,Clear,180,2013-03-07 18:53:00
12:53 PM,60.1,10.9,14,29.90,10.0,SSW,11.5,20.7,N/A,,Clear,200,2013-03-07 19:53:00
1:53 PM,62.1,14.0,15,29.87,10.0,South,9.2,24.2,N/A,,Clear,180,2013-03-07 20:53:00
2:53 PM,63.0,12.9,14,29.85,10.0,SSW,20.7,31.1,N/A,,Clear,210,2013-03-07 21:53:00
3:53 PM,63.0,12.9,14,29.84,10.0,South,9.2,23.0,N/A,,Clear,170,2013-03-07 22:53:00
4:53 PM,62.1,14.0,15,29.83,10.0,South,8.1,18.4,N/A,,Clear,170,2013-03-07 23:53:00
5:53 PM,57.0,14.0,18,29.84,10.0,SSW,10.4,-,N/A,,Clear,200,2013-03-08 00:53:00
6:53 PM,48.0,15.1,27,29.88,10.0,SSE,4.6,-,N/A,,Clear,160,2013-03-08 01:53:00
7:53 PM,42.1,21.9,45,29.88,10.0,Calm,Calm,-,N/A,,Mostly Cloudy,0,2013-03-08 02:53:00
8:53 PM,42.1,17.1,37,29.88,10.0,South,5.8,-,N/A,,Clear,190,2013-03-08 03:53:00
9:53 PM,43.0,12.9,30,29.85,10.0,SSW,5.8,-,N/A,,Clear,210,2013-03-08 04:53:00
10:53 PM,45.0,12.9,27,29.84,10.0,SSW,10.4,-,N/A,,Clear,210,2013-03-08 05:53:00
11:53 PM,42.1,14.0,32,29.84,10.0,South,4.6,-,N/A,,Clear,190,2013-03-08 06:53:00